Weather History for Sanford, FL

Change the Weather History Date:

Monday, August 26, 2013

  Actual Average Record
Temperature  
Mean Temperature 82 °F -  
Max Temperature 89 °F 90 °F 96 °F (2007)
Min Temperature 75 °F 72 °F 66 °F (1957)
Cooling Degree Days 16    
Growing Degree Days 32 (Base 50)    
Moisture  
Dew Point 74 °F    
Average Humidity 85    
Maximum Humidity 100    
Minimum Humidity 61    
Precipitation  
Precipitation 0.37 in - - ()
Sea Level Pressure  
Sea Level Pressure 30.10 in    
Wind  
Wind Speed 7 mph (NE)    
Max Wind Speed 17 mph    
Max Gust Speed 31 mph    
Visibility 8 miles    
Events Rain , Thunderstorm    
Averages and records for this station are not official NWS values.
T = Trace of Precipitation, MM = Missing Value Source: NWS Daily Summary

Daily Weather History Graph

Daily Weather History Graph

Search for Another Location

Airport:

Trip Planner

Search our weather history database for the weather conditions in past years. The results will help you decide how hot, cold, wet, or windy it might be!

Date:

Astronomy

Aug. 26, 2013 Rise Set
Actual Time 7:00 AM EDT 7:52 PM EDT
Civil Twilight 6:35 AM EDT 8:17 PM EDT
Nautical Twilight 6:07 AM EDT 8:45 PM EDT
Astronomical Twilight 5:37 AM EDT 9:14 PM EDT
Moon 11:36 PM EDT (8/26) 12:27 PM EDT (8/26)
Length of Visible Light 13h 41m
Length of Day
12h 52m
Waning Gibbous, 67% of the Moon is Illuminated
Aug 26
Waning Gibbous
Aug 28
Last Quarter
Sep 5
New
Sep 12
First Quarter
Sep 19
Full

Hourly Weather History & Observations

Time (EDT) Temp. Heat Index Dew Point Humidity Pressure Visibility Wind Dir Wind Speed Gust Speed Precip Events Conditions
12:53 AM 75.9 °F - 73.9 °F 94% 30.14 in 10.0 mi North 5.8 mph - N/A   Clear
1:53 AM 75.9 °F - 73.9 °F 94% 30.13 in 10.0 mi North 5.8 mph - N/A   Partly Cloudy
2:53 AM 75.9 °F - 73.9 °F 94% 30.11 in 10.0 mi North 4.6 mph - N/A   Clear
3:53 AM 75.9 °F - 73.9 °F 94% 30.10 in 10.0 mi North 5.8 mph - N/A   Clear
4:53 AM 75.9 °F - 73.9 °F 94% 30.10 in 10.0 mi North 5.8 mph - N/A   Partly Cloudy
5:53 AM 75.0 °F - 73.0 °F 94% 30.11 in 10.0 mi NNW 3.5 mph - N/A   Clear
6:53 AM 75.0 °F - 73.9 °F 96% 30.11 in 10.0 mi North 5.8 mph - N/A   Clear
7:53 AM 75.9 °F - 73.9 °F 94% 30.11 in 10.0 mi North 4.6 mph - N/A   Clear
8:53 AM 77.0 °F - 73.9 °F 90% 30.12 in 10.0 mi NNE 8.1 mph - N/A   Partly Cloudy
9:53 AM 80.1 °F 84.5 °F 73.9 °F 81% 30.12 in 10.0 mi NE 9.2 mph - N/A   Clear
10:53 AM 82.9 °F 90.2 °F 75.0 °F 77% 30.13 in 10.0 mi NE 9.2 mph - N/A   Scattered Clouds
11:53 AM 86.0 °F 93.8 °F 73.9 °F 67% 30.12 in 10.0 mi ENE 8.1 mph - N/A   Scattered Clouds
12:53 PM 82.0 °F 88.6 °F 75.0 °F 79% 30.11 in 7.0 mi NE 9.2 mph 18.4 mph 0.05 in Rain Light Rain
1:38 PM 80.6 °F 85.4 °F 73.4 °F 79% 30.11 in 1.8 mi ENE 6.9 mph 31.1 mph 0.06 in Rain Rain
1:45 PM 80.6 °F 85.4 °F 73.4 °F 79% 30.11 in 10.0 mi Variable 3.5 mph - 0.07 in Rain Light Rain
1:53 PM 82.9 °F 90.8 °F 75.9 °F 79% 30.10 in 10.0 mi NE 6.9 mph - 0.07 in   Mostly Cloudy
2:53 PM 87.1 °F 95.4 °F 73.9 °F 65% 30.08 in 10.0 mi ENE 17.3 mph 23.0 mph 0.00 in   Scattered Clouds
3:53 PM 86.0 °F 96.0 °F 75.9 °F 72% 30.06 in 10.0 mi ENE 11.5 mph - 0.00 in   Scattered Clouds
4:53 PM 88.0 °F 95.6 °F 73.0 °F 61% 30.05 in 10.0 mi ENE 13.8 mph - N/A   Partly Cloudy
5:53 PM 84.9 °F 93.3 °F 75.0 °F 72% 30.04 in 10.0 mi NE 9.2 mph 18.4 mph N/A   Clear
6:53 PM 84.0 °F 90.2 °F 73.0 °F 69% 30.05 in 10.0 mi ENE 12.7 mph - N/A   Partly Cloudy
7:53 PM 81.0 °F 86.2 °F 73.9 °F 79% 30.06 in 10.0 mi ENE 10.4 mph - N/A   Partly Cloudy
8:53 PM 79.0 °F - 75.0 °F 88% 30.07 in 10.0 mi NE 5.8 mph - N/A   Scattered Clouds
9:53 PM 77.0 °F - 73.9 °F 90% 30.08 in 1.8 mi ESE 6.9 mph 18.4 mph 0.14 in Rain Heavy Rain
10:00 PM 77.0 °F - 73.4 °F 89% 30.09 in 3.0 mi Calm Calm - 0.00 in Rain Light Rain
10:48 PM 75.2 °F - 75.2 °F 100% 30.10 in 1.8 mi Calm Calm - 0.11 in Rain , Thunderstorm Heavy Rain
10:53 PM 75.9 °F - 75.0 °F 97% 30.10 in 2.0 mi ESE 3.5 mph - 0.11 in Rain , Thunderstorm Light Rain
11:00 PM 75.2 °F - 75.2 °F 100% 30.10 in 10.0 mi East 4.6 mph - 0.00 in Rain Light Rain
11:53 PM 75.9 °F - 75.0 °F 97% 30.09 in 10.0 mi North 3.5 mph - 0.00 in   Mostly Cloudy